This is the latest recevied weather packets stored in our database for station/object OK2ZAW-21. If no packets are shown the sender has not sent any weather packets the latest 10 day(s).
| Time | Temp. | Humidity | Pressure | Rain* | Wind** | Luminosity | Snow |
|---|---|---|---|---|---|---|---|
| 1788546453 | 23.33° C | 56% | 1016.6 hPa | - | - | 420 W/m² | - |
| 1788546163 | 23.33° C | 57% | 1016.6 hPa | - | - | 420 W/m² | - |
| 1788545830 | 23.33° C | 57% | 1016.7 hPa | - | - | 420 W/m² | - |
| 1788545519 | 23.33° C | 58% | 1016.6 hPa | - | - | 420 W/m² | - |
| 1788545207 | 23.33° C | 58% | 1016.5 hPa | - | - | 420 W/m² | - |
| 1788544896 | 23.33° C | 57% | 1016.5 hPa | - | - | 420 W/m² | - |
| 1788544584 | 23.33° C | 57% | 1016.3 hPa | - | - | 420 W/m² | - |
| 1788544273 | 23.33° C | 58% | 1016.2 hPa | - | - | 420 W/m² | - |
| 1788543961 | 23.33° C | 58% | 1016.2 hPa | - | - | 421 W/m² | - |
| 1788543649 | 23.89° C | 57% | 1016.1 hPa | - | - | 420 W/m² | - |
| 1788543338 | 23.89° C | 57% | 1016 hPa | - | - | 420 W/m² | - |
| 1788543026 | 23.89° C | 56% | 1015.9 hPa | - | - | 421 W/m² | - |
| 1788542715 | 24.44° C | 56% | 1015.9 hPa | - | - | 420 W/m² | - |
| 1788542403 | 24.44° C | 54% | 1015.9 hPa | - | - | 421 W/m² | - |
| 1788542091 | 25° C | 52% | 1015.9 hPa | - | - | 421 W/m² | - |
| 1788541779 | 25.56° C | 51% | 1015.8 hPa | - | - | 421 W/m² | - |
| 1788541156 | 25.56° C | 50% | 1015.9 hPa | - | - | 421 W/m² | - |
| 1788540844 | 26.11° C | 50% | 1015.9 hPa | - | - | 421 W/m² | - |
| 1788540532 | 26.11° C | 49% | 1015.9 hPa | - | - | 421 W/m² | - |
| 1788540220 | 26.11° C | 49% | 1015.7 hPa | - | - | 421 W/m² | - |
| 1788539908 | 26.11° C | 49% | 1015.7 hPa | - | - | 421 W/m² | - |
| 1788539596 | 26.67° C | 48% | 1015.9 hPa | - | - | 421 W/m² | - |
| 1788539284 | 25.56° C | 51% | 1016 hPa | - | - | 421 W/m² | - |
| 1788538660 | 27.22° C | 48% | 1016 hPa | - | - | 421 W/m² | - |
| 1788538348 | 27.22° C | 47% | 1016 hPa | - | - | 421 W/m² | - |
* Rain since midnight (hover to see other rain measurements)
** Current wind speed in m/s (hover to see current wind gust speed)